Date String (YYYY-MM-DD hh:mm:ss) UTC,Instrument flags,Ambient pressure (hPa),Sample flow (lpm),Bypass flow (lpm),Sample temperature (°C),Ambient temperature (°C),ASC tube jacket temperature (°C),LED temperature (°C),Box temperature (°C),Sample RH (%),Span deviation,Mass concentration (μg/m³),Mass concentration (μg/m³),Mass concentration (μg/m³)
DateTimeUTC,F1_M11,P_M11,Q1_M11,Q2_M11,T1_M11,T2_M11,T3_M11,T4_M11,T5_M11,U1_M11,ZSPAN_M11,X0_M11,X2_M11,X1_M11
2021-12-12 20:00:00,,0819.1,5.00,0.00,24.9,24.1,00.0,33.6,26.7,05.0,0000.0,0003.74,0000.57,0000.36
2021-12-12 20:01:00,,0819.2,5.00,0.00,24.9,24.2,00.0,33.7,26.8,05.0,0000.0,0002.95,0000.56,0000.37
2021-12-12 20:02:00,,0819.2,5.00,0.00,24.9,24.2,00.0,33.7,26.8,05.0,0000.0,0002.58,0000.55,0000.37
2021-12-12 20:03:00,,0819.2,4.99,0.00,24.9,24.2,00.0,33.7,26.8,05.0,0000.0,0002.84,0000.54,0000.37
2021-12-12 20:04:00,,0819.3,5.02,0.00,25.0,24.3,00.0,33.7,26.8,05.0,0000.0,0002.86,0000.55,0000.38
2021-12-12 20:05:00,,0819.3,4.98,0.00,25.0,24.3,00.0,33.8,26.9,05.0,0000.0,0003.64,0000.54,0000.37
2021-12-12 20:06:00,,0819.2,5.01,0.00,25.0,24.4,00.0,33.8,26.9,05.1,0000.0,0004.56,0000.58,0000.38
2021-12-12 20:07:00,,0819.2,5.00,0.00,25.1,24.4,00.0,33.8,27.0,05.0,0000.0,0004.32,0000.60,0000.38
2021-12-12 20:08:00,,0819.3,4.98,0.00,25.1,24.5,00.0,33.8,27.0,05.0,0000.0,0003.99,0000.62,0000.38
2021-12-12 20:09:00,,0819.3,5.02,0.00,25.1,24.5,00.0,33.9,27.0,05.0,0000.0,0004.06,0000.65,0000.38
2021-12-12 20:10:00,,0819.3,4.99,0.00,25.2,24.5,00.0,33.9,27.1,05.1,0000.0,0004.13,0000.65,0000.38
2021-12-12 20:11:00,,0819.4,4.99,0.00,25.2,24.5,00.0,33.9,27.1,05.1,0000.0,0003.33,0000.66,0000.39
2021-12-12 20:12:00,,0819.4,5.01,0.00,25.2,24.6,00.0,33.9,27.1,05.0,0000.0,0003.58,0000.71,0000.39
2021-12-12 20:13:00,,0819.4,4.99,0.00,25.3,24.6,00.0,34.0,27.2,05.0,0000.0,0004.63,0000.74,0000.39
2021-12-12 20:14:00,,0819.4,5.00,0.00,25.3,24.6,00.0,34.0,27.2,05.0,0000.0,0004.27,0000.74,0000.39
2021-12-12 20:15:00,,0819.4,5.00,0.00,25.3,24.7,00.0,34.0,27.2,05.0,0000.0,0004.33,0000.75,0000.39
2021-12-12 20:16:00,,0819.3,5.01,0.00,25.3,24.7,00.0,34.1,27.3,05.0,0000.0,0003.78,0000.77,0000.39
2021-12-12 20:17:00,,0819.4,4.99,0.00,25.4,24.7,00.0,34.1,27.3,05.0,0000.0,0002.57,0000.74,0000.39
2021-12-12 20:18:00,,0819.4,5.02,0.00,25.4,24.7,00.0,34.1,27.3,05.0,0000.0,0003.19,0000.70,0000.39
2021-12-12 20:19:00,,0819.4,4.98,0.00,25.4,24.7,00.0,34.1,27.3,05.0,0000.0,0003.86,0000.69,0000.39
2021-12-12 20:20:00,,0819.4,5.01,0.00,25.4,24.8,00.0,34.2,27.4,05.0,0000.0,0003.86,0000.65,0000.38
2021-12-12 20:21:00,,0819.2,5.00,0.00,25.5,24.8,00.0,34.2,27.4,05.0,0000.0,0003.70,0000.64,0000.38
2021-12-12 20:22:00,,0819.4,4.99,0.00,25.5,24.9,00.0,34.2,27.4,05.1,0000.0,0003.66,0000.62,0000.38
2021-12-12 20:23:00,,0819.4,5.00,0.00,25.5,24.9,00.0,34.3,27.5,05.0,0000.0,0003.56,0000.61,0000.38
2021-12-12 20:24:00,,0819.3,4.99,0.00,25.6,24.9,00.0,34.3,27.5,05.0,0000.0,0002.59,0000.57,0000.38
2021-12-12 20:25:00,,0819.3,5.02,0.00,25.6,24.9,00.0,34.3,27.5,05.0,0000.0,0002.44,0000.59,0000.39
2021-12-12 20:26:00,,0819.4,4.98,0.00,25.6,24.9,00.0,34.3,27.5,05.0,0000.0,0003.64,0000.59,0000.40
2021-12-12 20:27:00,,0819.5,5.01,0.00,25.6,25.0,00.0,34.4,27.5,05.0,0000.0,0005.32,0000.56,0000.41
2021-12-12 20:28:00,,0819.3,5.00,0.00,25.7,25.0,00.0,34.4,27.5,05.0,0000.0,0005.42,0000.57,0000.41
2021-12-12 20:29:00,,0819.3,4.99,0.00,25.7,25.0,00.0,34.4,27.6,05.0,0000.0,0005.28,0000.61,0000.41
2021-12-12 20:30:00,,0819.3,5.00,0.00,25.7,25.0,00.0,34.4,27.6,05.0,0000.0,0004.43,0000.66,0000.41
2021-12-12 20:31:00,,0819.3,5.01,0.00,25.7,25.0,00.0,34.5,27.6,04.9,0000.0,0004.49,0000.68,0000.41
2021-12-12 20:32:00,,0819.4,5.02,0.00,25.7,25.0,00.0,34.5,27.6,04.9,0000.0,0004.56,0000.70,0000.42
2021-12-12 20:33:00,,0819.4,4.98,0.00,25.8,25.0,00.0,34.5,27.7,04.9,0000.0,0004.68,0000.72,0000.41
2021-12-12 20:34:00,,0819.3,5.02,0.00,25.8,25.1,00.0,34.6,27.7,05.0,0000.0,0004.70,0000.75,0000.41
2021-12-12 20:35:00,,0819.4,5.00,0.00,25.8,25.1,00.0,34.6,27.7,05.0,0000.0,0004.83,0000.79,0000.41
2021-12-12 20:36:00,,0819.3,5.00,0.00,25.8,25.1,00.0,34.6,27.8,04.9,0000.0,0004.87,0000.79,0000.41
2021-12-12 20:37:00,,0819.3,4.99,0.00,25.9,25.2,00.0,34.6,27.8,05.0,0000.0,0003.59,0000.77,0000.40
2021-12-12 20:38:00,,0819.3,4.99,0.00,25.9,25.2,00.0,34.6,27.8,05.0,0000.0,0002.04,0000.77,0000.39
2021-12-12 20:39:00,,0819.3,5.01,0.00,25.9,25.2,00.0,34.7,27.8,04.9,0000.0,0001.93,0000.74,0000.39
2021-12-12 20:40:00,,0819.3,5.00,0.00,26.0,25.3,00.0,34.7,27.8,04.9,0000.0,0001.89,0000.71,0000.38
2021-12-12 20:41:00,,0819.2,5.00,0.00,26.0,25.3,00.0,34.7,27.9,04.9,0000.0,0001.78,0000.69,0000.39
2021-12-12 20:42:00,,0819.1,5.00,0.00,26.0,25.3,00.0,34.7,27.9,04.9,0000.0,0001.63,0000.66,0000.38
2021-12-12 20:43:00,,0819.1,5.01,0.00,26.0,25.3,00.0,34.8,27.9,04.8,0000.0,0002.68,0000.65,0000.37
2021-12-12 20:44:00,,0819.3,4.98,0.00,26.0,25.3,00.0,34.8,27.9,04.9,0000.0,0002.76,0000.63,0000.37
2021-12-12 20:45:00,,0819.2,5.00,0.00,26.0,25.3,00.0,34.8,27.9,04.9,0000.0,0002.94,0000.61,0000.37
2021-12-12 20:46:00,,0819.1,5.01,0.00,26.1,25.3,00.0,34.8,27.9,04.8,0000.0,0002.98,0000.57,0000.37
2021-12-12 20:47:00,,0819.2,5.00,0.00,26.1,25.4,00.0,34.9,27.9,04.9,0000.0,0002.94,0000.57,0000.37
2021-12-12 20:48:00,,0819.3,5.00,0.00,26.1,25.4,00.0,34.9,28.0,04.9,0000.0,0002.96,0000.58,0000.37
2021-12-12 20:49:00,,0819.2,5.00,0.00,26.1,25.4,00.0,34.9,28.0,04.8,0000.0,0002.90,0000.60,0000.37
2021-12-12 20:50:00,,0819.2,5.00,0.00,26.1,25.4,00.0,34.9,28.0,04.8,0000.0,0002.86,0000.63,0000.38
2021-12-12 20:51:00,,0819.2,5.00,0.00,26.2,25.4,00.0,35.0,28.1,04.7,0000.0,0002.75,0000.62,0000.38
2021-12-12 20:52:00,,0819.2,5.01,0.00,26.2,25.5,00.0,35.0,28.1,04.8,0000.0,0002.79,0000.62,0000.37
2021-12-12 20:53:00,,0819.2,4.99,0.00,26.2,25.5,00.0,35.0,28.1,04.8,0000.0,0003.28,0000.65,0000.38
2021-12-12 20:54:00,,0819.2,4.99,0.00,26.2,25.5,00.0,35.0,28.1,04.7,0000.0,0002.36,0000.68,0000.39
2021-12-12 20:55:00,,0819.3,5.02,0.00,26.2,25.5,00.0,35.0,28.1,04.7,0000.0,0002.35,0000.71,0000.40
2021-12-12 20:56:00,,0819.2,4.99,0.00,26.2,25.5,00.0,35.1,28.1,04.7,0000.0,0002.21,0000.70,0000.40
2021-12-12 20:57:00,,0819.1,5.00,0.00,26.3,25.6,00.0,35.1,28.1,04.7,0000.0,0002.09,0000.71,0000.40
2021-12-12 20:58:00,,0819.1,5.01,0.00,26.3,25.6,00.0,35.1,28.1,04.7,0000.0,0002.09,0000.72,0000.41
2021-12-12 20:59:00,,0819.2,4.99,0.00,26.3,25.6,00.0,35.1,28.2,04.6,0000.0,0002.11,0000.72,0000.40
